Regional Weather Roundup
Issued by NWS Jackson, KY

Home | Current Version | Previous Version | Graphics & Text | Print | Product List | Glossary On
Versions: 1 2 3 4 5 6 7 8 9 10 11 12 13 14 15 16 17 18 19 20 21 22 23 24 25 26 27 28 29 30 31 32 33 34 35 36 37 38 39 40 41 42 43 44 45 46 47 48 49 50
000
ASUS43 KJKL 231810
RWRJKL

EAST KENTUCKY HOURLY WEATHER ROUNDUP
NATIONAL WEATHER SERVICE JACKSON KY
200 PM EDT TUE AUG 23 2016

NOTE: "FAIR" INDICATES FEW OR NO CLOUDS BELOW 12,000 FEET WITH
NO SIGNIFICANT WEATHER AND/OR OBSTRUCTIONS TO VISIBILITY.

* THESE REPORTS ARE NOT UNDER NWS QUALITY CONTROL AND MAY NOT
  REPORT WEATHER SUCH AS PRECIPITATION AND FOG.

KYZ079-080-083-085-087-088-110-112-115-119-120-231900
...EASTERN KENTUCKY...

CITY           SKY/WX    TMP DP  RH WIND       PRES   REMARKS
JACKSON        SUNNY     80  60  50 VRB3      30.30F
6HR MIN TEMP:  61; 6HR MAX TEMP:  80;

LONDON         SUNNY     80  57  45 SW5       30.29F
6HR MIN TEMP:  59; 6HR MAX TEMP:  81;

SOMERSET*      SUNNY     79  59  50 W3        30.28F
MONTICELLO*    PTSUNNY  N/A N/A N/A W13G18    30.29F
WILLIAMSBURG*  CLEAR     81  59  47 CALM      30.29F
MIDDLESBORO*   SUNNY     82  60  46 S6        30.29F
6HR MIN TEMP:  58; 6HR MAX TEMP:  82;

HARLAN APT*    CLEAR     81  59  47 W3        30.30F
PIKE CO APT*     N/A     79  61  54 CALM      30.31S
BIG SANDY APT* CLEAR     80  60  51 SW6       30.30S
6HR MIN TEMP:  59; 6HR MAX TEMP:  80;

MOREHEAD APT*  CLEAR     79  57  47 SE5       30.30F
$$

KYZ035-036-041-042-044-050-067-078-099-231900
...CENTRAL KENTUCKY...

CITY           SKY/WX    TMP DP  RH WIND       PRES   REMARKS
MT STERLING*   SUNNY     81  61  50 E3        30.30F
FLEMING/MASON* SUNNY     79  58  48 E6        30.29F
DANVILLE*      MOSUNNY   81  61  50 S6        30.29F
LEXINGTON      SUNNY     80  57  45 SE6       30.28F
6HR MIN TEMP:  63; 6HR MAX TEMP:  81;

FRANKFORT      SUNNY     81  57  43 SE6       30.26F
6HR MIN TEMP:  60; 6HR MAX TEMP:  82;

LOUISVILLE     PTSUNNY   82  59  45 VRB3      30.25F
6HR MIN TEMP:  66; 6HR MAX TEMP:  82;

LEBANON*         N/A     81  59  47 SW5       30.27F
GLASGOW*       MOSUNNY   82  63  52 S7        30.26S
BOWLING GREEN  SUNNY     82  61  48 VRB6      30.25F
6HR MIN TEMP:  62; 6HR MAX TEMP:  82;

$$

KYZ091>093-OHZ055-061-077-WVZ005-015-034-035-042-231900
...SOUTHERN OHIO/WEST VIRGINIA...

CITY           SKY/WX    TMP DP  RH WIND       PRES   REMARKS
COVINGTON      PTSUNNY   80  59  48 VRB5      30.28F
COLUMBUS       MOSUNNY   78  56  46 SE9       30.28F
DAYTON         PTSUNNY   77  57  50 SW7       30.29F
WILMINGTON     SUNNY     77  59  53 VRB3      30.29F
HUNTINGTON     SUNNY     80  57  45 CALM      30.28F
CHARLESTON     MOSUNNY   81  57  43 VRB3      30.28F
PINEVILLE*     MOSUNNY   83  59  44 MISG      30.36F
BECKLEY        MOSUNNY   76  59  55 VRB7      30.36S
BLUEFIELD      MOSUNNY   74  59  59 S9        30.38F
LOGAN CO APT*    N/A     79  63  57 CALM      30.30F
$$

VAZ002-007-008-TNZ017-027-036-066-071-231900
...SOUTHWEST VIRGINIA/EAST TENNESSEE...

CITY           SKY/WX    TMP DP  RH WIND       PRES   REMARKS
WISE*          MOSUNNY   79  50  36 SW7G16    30.37S
JONESVILLE*      N/A     84  63  48 SW9       30.32F
ABINGDON*      MOSUNNY   83  62  50 S5        30.34F
BRISTOL        MOSUNNY   85  61  44 S8        30.30F
MORRISTOWN*    CLEAR     82  63  51 VRB3G12   30.28F
SEVIERVILLE*   CLEAR     84  64  51 VRB6      30.26F
KNOXVILLE      PTSUNNY   86  64  47 NW6       30.26F
OAK RIDGE      SUNNY     85  60  42 MISG      30.28F
CROSSVILLE     MOSUNNY   79  61  53 W10       30.32F
NASHVILLE      PTSUNNY   83  63  50 CALM      30.25F
$$

...KEY TO REMARKS...
VSB - VISIBILITY IN MILES
WCI - WIND CHILL INDEX
HX  - HEAT INDEX

$$



USA.gov is the U.S. government's official web portal to all federal, state and local government web resources and services.